| time (UTC) | temp F | wind direction | speed MPH | gust MPH | rain 1hr in | rain 24hr in | rain mn in | humidity % | barometer mb |
| 20260504195248 | 79 | 161 | 10.0 | 19.0 | 0.00 | 0.00 | 0.00 | 59 | 1013.2 |
| 20260504194745 | 78 | 212 | 9.0 | 17.0 | 0.00 | 0.00 | 0.00 | 60 | 1013.5 |
| 20260504194241 | 78 | 162 | 11.0 | 18.0 | 0.00 | 0.00 | 0.00 | 60 | 1013.5 |
| 20260504193737 | 78 | 148 | 6.0 | 19.0 | 0.00 | 0.00 | 0.00 | 60 | 1013.6 |
| 20260504193235 | 78 | 213 | 9.0 | 14.0 | 0.00 | 0.00 | 0.00 | 61 | 1013.6 |
| 20260504192733 | 79 | 141 | 7.0 | 19.0 | 0.00 | 0.00 | 0.00 | 59 | 1013.6 |
| 20260504192231 | 79 | 151 | 15.0 | 19.0 | 0.00 | 0.00 | 0.00 | 59 | 1013.5 |
| 20260504191729 | 78 | 179 | 10.0 | 21.0 | 0.00 | 0.00 | 0.00 | 60 | 1013.7 |
| 20260504191226 | 78 | 222 | 12.0 | 16.0 | 0.00 | 0.00 | 0.00 | 60 | 1013.8 |
| 20260504190721 | 78 | 186 | 10.0 | 19.0 | 0.00 | 0.00 | 0.00 | 60 | 1013.9 |
| 20260504190218 | 78 | 194 | 13.0 | 24.0 | 0.00 | 0.00 | 0.00 | 59 | 1014.1 |
| 20260504185714 | 78 | 183 | 6.0 | 16.0 | 0.00 | 0.00 | 0.00 | 60 | 1013.9 |
| 20260504185211 | 78 | 222 | 10.0 | 17.0 | 0.00 | 0.00 | 0.00 | 61 | 1014.0 |
| 20260504184707 | 78 | 180 | 8.0 | 24.0 | 0.00 | 0.00 | 0.00 | 61 | 1014.1 |
| 20260504184203 | 77 | 150 | 8.0 | 21.0 | 0.00 | 0.00 | 0.00 | 61 | 1014.3 |
| 20260504183659 | 78 | 190 | 6.0 | 13.0 | 0.00 | 0.00 | 0.00 | 60 | 1014.6 |
| 20260504183156 | 78 | 149 | 11.0 | 15.0 | 0.00 | 0.00 | 0.00 | 60 | 1014.4 |
| 20260504182654 | 78 | 152 | 3.0 | 11.0 | 0.00 | 0.00 | 0.00 | 61 | 1014.5 |
| 20260504182151 | 77 | 208 | 8.0 | 10.0 | 0.00 | 0.00 | 0.00 | 61 | 1014.5 |
| 20260504181649 | 78 | 232 | 12.0 | 15.0 | 0.00 | 0.00 | 0.00 | 59 | 1014.6 |
| 20260504181146 | 78 | 215 | 5.0 | 16.0 | 0.00 | 0.00 | 0.00 | 61 | 1014.6 |
| 20260504180645 | 78 | 233 | 5.0 | 10.0 | 0.00 | 0.00 | 0.00 | 60 | 1014.8 |
| 20260504180143 | 78 | 226 | 4.0 | 10.0 | 0.00 | 0.00 | 0.00 | 61 | 1014.8 |
| 20260504175640 | 77 | 167 | 8.0 | 13.0 | 0.00 | 0.00 | 0.00 | 61 | 1014.9 |
| 20260504175137 | 77 | 185 | 9.0 | 21.0 | 0.00 | 0.00 | 0.00 | 60 | 1015.1 |
| 20260504174636 | 77 | 178 | 10.0 | 15.0 | 0.00 | 0.00 | 0.00 | 60 | 1015.2 |
| 20260504174131 | 78 | 244 | 4.0 | 14.0 | 0.00 | 0.00 | 0.00 | 60 | 1015.1 |
| 20260504173629 | 77 | 195 | 6.0 | 10.0 | 0.00 | 0.00 | 0.00 | 62 | 1015.3 |
| 20260504173126 | 76 | 166 | 9.0 | 14.0 | 0.00 | 0.00 | 0.00 | 61 | 1015.3 |
| 20260504172622 | 77 | 179 | 9.0 | 18.0 | 0.00 | 0.00 | 0.00 | 59 | 1015.2 |
| 20260504172119 | 76 | 219 | 4.0 | 19.0 | 0.00 | 0.00 | 0.00 | 62 | 1015.2 |
| 20260504171616 | 76 | 214 | 3.0 | 11.0 | 0.00 | 0.00 | 0.00 | 62 | 1015.4 |
| 20260504171113 | 76 | 160 | 8.0 | 17.0 | 0.00 | 0.00 | 0.00 | 62 | 1015.7 |
| 20260504170609 | 76 | 205 | 9.0 | 14.0 | 0.00 | 0.00 | 0.00 | 60 | 1015.7 |
| 20260504170107 | 76 | 181 | 9.0 | 19.0 | 0.00 | 0.00 | 0.00 | 61 | 1015.8 |
| 20260504150952 | 70 | 255 | 4.0 | 16.0 | 0.00 | 0.00 | 0.00 | 66 | 1016.7 |
| 20260504150449 | 70 | 204 | 10.0 | 19.0 | 0.00 | 0.00 | 0.00 | 67 | 1016.7 |
| 20260504140916 | 66 | 167 | 2.0 | 4.0 | 0.00 | 0.00 | 0.00 | 74 | 1016.8 |
| 20260504140412 | 65 | 198 | 8.0 | 11.0 | 0.00 | 0.00 | 0.00 | 74 | 1017.0 |
| 20260504130337 | 61 | 185 | 5.0 | 7.0 | 0.00 | 0.00 | 0.00 | 82 | 1016.7 |
| 20260504120300 | 58 | 208 | 4.0 | 4.0 | 0.00 | 0.00 | 0.00 | 87 | 1016.3 |
| 20260504110224 | 59 | 219 | 3.0 | 4.0 | 0.00 | 0.00 | 0.00 | 85 | 1016.7 |
| 20260504100148 | 59 | 199 | 4.0 | 4.0 | 0.00 | 0.00 | 0.00 | 85 | 1016.6 |
| 20260504090110 | 59 | 143 | 2.0 | 2.0 | 0.00 | 0.00 | 0.00 | 82 | 1016.9 |
| 20260504081541 | 60 | 184 | 2.0 | 3.0 | 0.00 | 0.00 | 0.00 | 79 | 1017.0 |
| 20260504081036 | 60 | 179 | 3.0 | 7.0 | 0.00 | 0.00 | 0.00 | 79 | 1017.2 |
| 20260504080533 | 60 | 187 | 3.0 | 4.0 | 0.00 | 0.00 | 0.00 | 79 | 1017.2 |
| 20260504050346 | 63 | 171 | 2.0 | 6.0 | 0.00 | 0.00 | 0.00 | 70 | 1019.0 |
| 20260504045843 | 63 | 189 | 3.0 | 4.0 | 0.00 | 0.00 | 0.00 | 70 | 1018.9 |
| 20260504045338 | 63 | 175 | 3.0 | 6.0 | 0.00 | 0.00 | 0.00 | 70 | 1019.0 |
| 20260504044835 | 63 | 192 | 2.0 | 3.0 | 0.00 | 0.00 | 0.00 | 69 | 1019.1 |
| 20260504044332 | 64 | 169 | 1.0 | 4.0 | 0.00 | 0.00 | 0.00 | 69 | 1019.1 |
| 20260504043830 | 64 | 221 | 2.0 | 3.0 | 0.00 | 0.00 | 0.00 | 68 | 1019.2 |
| 20260504043326 | 64 | 205 | 1.0 | 6.0 | 0.00 | 0.00 | 0.00 | 68 | 1019.1 |
| 20260504042824 | 64 | 204 | 2.0 | 4.0 | 0.00 | 0.00 | 0.00 | 68 | 1019.1 |
| 20260504042320 | 64 | 203 | 3.0 | 4.0 | 0.00 | 0.00 | 0.00 | 68 | 1019.2 |
| 20260504041816 | 64 | 202 | 3.0 | 4.0 | 0.00 | 0.00 | 0.00 | 68 | 1019.3 |
| 20260504041313 | 64 | 180 | 3.0 | 6.0 | 0.00 | 0.00 | 0.00 | 68 | 1019.2 |
| 20260504040809 | 65 | 184 | 2.0 | 4.0 | 0.00 | 0.00 | 0.00 | 67 | 1019.3 |
| 20260504040307 | 65 | 187 | 2.0 | 4.0 | 0.00 | 0.00 | 0.00 | 67 | 1019.5 |
| 20260504035802 | 65 | 174 | 3.0 | 4.0 | 0.00 | 0.00 | 0.00 | 66 | 1019.5 |
| 20260504035300 | 65 | 189 | 1.0 | 4.0 | 0.00 | 0.00 | 0.00 | 66 | 1019.2 |
| 20260504034757 | 65 | 184 | 4.0 | 4.0 | 0.00 | 0.00 | 0.00 | 65 | 1019.2 |
| 20260504034254 | 66 | 180 | 2.0 | 3.0 | 0.00 | 0.00 | 0.00 | 65 | 1019.3 |
| 20260504033751 | 66 | 145 | 3.0 | 4.0 | 0.00 | 0.00 | 0.00 | 64 | 1019.4 |
| 20260504033249 | 66 | 151 | 3.0 | 6.0 | 0.00 | 0.00 | 0.00 | 64 | 1019.2 |
| 20260504032746 | 66 | 192 | 3.0 | 4.0 | 0.00 | 0.00 | 0.00 | 64 | 1019.1 |
| 20260504032243 | 66 | 205 | 3.0 | 3.0 | 0.00 | 0.00 | 0.00 | 63 | 1019.2 |
| 20260504031739 | 66 | 184 | 3.0 | 6.0 | 0.00 | 0.00 | 0.00 | 63 | 1019.0 |
| 20260504031237 | 67 | 201 | 2.0 | 3.0 | 0.00 | 0.00 | 0.00 | 62 | 1019.1 |
| 20260504030732 | 67 | 162 | 2.0 | 3.0 | 0.00 | 0.00 | 0.00 | 62 | 1019.1 |
| 20260504030230 | 67 | 182 | 3.0 | 4.0 | 0.00 | 0.00 | 0.00 | 62 | 1019.0 |
| 20260504025726 | 67 | 182 | 1.0 | 3.0 | 0.00 | 0.00 | 0.00 | 62 | 1019.1 |
| 20260504025223 | 67 | 215 | 1.0 | 3.0 | 0.00 | 0.00 | 0.00 | 62 | 1019.2 |
| 20260504024720 | 67 | 181 | 1.0 | 3.0 | 0.00 | 0.00 | 0.00 | 61 | 1019.3 |
| 20260504024217 | 67 | 184 | 2.0 | 2.0 | 0.00 | 0.00 | 0.00 | 61 | 1019.2 |
| 20260504023714 | 68 | 172 | 2.0 | 3.0 | 0.00 | 0.00 | 0.00 | 60 | 1019.2 |
| 20260504023209 | 68 | 170 | 2.0 | 3.0 | 0.00 | 0.00 | 0.00 | 59 | 1019.2 |
| 20260504022706 | 68 | 187 | 1.0 | 3.0 | 0.00 | 0.00 | 0.00 | 59 | 1019.2 |
| 20260504022202 | 68 | 187 | 1.0 | 2.0 | 0.00 | 0.00 | 0.00 | 59 | 1019.0 |
| 20260504021700 | 68 | 192 | 1.0 | 3.0 | 0.00 | 0.00 | 0.00 | 58 | 1018.9 |
| 20260504021156 | 69 | 197 | 1.0 | 2.0 | 0.00 | 0.00 | 0.00 | 57 | 1018.8 |
| 20260504020653 | 69 | 179 | 2.0 | 3.0 | 0.00 | 0.00 | 0.00 | 56 | 1018.8 |
| 20260504020149 | 69 | 189 | 2.0 | 2.0 | 0.00 | 0.00 | 0.00 | 56 | 1018.9 |
| 20260504015646 | 69 | 179 | 1.0 | 3.0 | 0.00 | 0.00 | 0.00 | 55 | 1018.7 |
| 20260504015143 | 70 | 186 | 2.0 | 3.0 | 0.00 | 0.00 | 0.00 | 54 | 1018.9 |
| 20260504014638 | 70 | 186 | 3.0 | 3.0 | 0.00 | 0.00 | 0.00 | 54 | 1018.8 |
| 20260504014136 | 70 | 196 | 2.0 | 3.0 | 0.00 | 0.00 | 0.00 | 53 | 1018.8 |
| 20260504013633 | 70 | 182 | 2.0 | 3.0 | 0.00 | 0.00 | 0.00 | 53 | 1018.6 |
| 20260504013130 | 70 | 195 | 2.0 | 3.0 | 0.00 | 0.00 | 0.00 | 52 | 1018.7 |
| 20260504012627 | 71 | 167 | 2.0 | 3.0 | 0.00 | 0.00 | 0.00 | 51 | 1018.6 |
| 20260504012125 | 71 | 184 | 2.0 | 3.0 | 0.00 | 0.00 | 0.00 | 51 | 1018.8 |
| 20260504011622 | 71 | 181 | 2.0 | 3.0 | 0.00 | 0.00 | 0.00 | 50 | 1018.9 |
| 20260504011118 | 71 | 185 | 1.0 | 2.0 | 0.00 | 0.00 | 0.00 | 50 | 1018.6 |
| 20260504010614 | 72 | 181 | 1.0 | 3.0 | 0.00 | 0.00 | 0.00 | 49 | 1018.8 |
| 20260504010110 | 72 | 174 | 2.0 | 2.0 | 0.00 | 0.00 | 0.00 | 48 | 1018.8 |
| 20260504005607 | 73 | 162 | 3.0 | 3.0 | 0.00 | 0.00 | 0.00 | 47 | 1018.6 |
| 20260504005104 | 73 | 204 | 1.0 | 3.0 | 0.00 | 0.00 | 0.00 | 47 | 1018.8 |
| 20260504004602 | 73 | 194 | 1.0 | 4.0 | 0.00 | 0.00 | 0.00 | 46 | 1018.5 |
| 20260504004059 | 74 | 173 | 4.0 | 6.0 | 0.00 | 0.00 | 0.00 | 45 | 1018.7 |
| 20260504003555 | 74 | 207 | 2.0 | 6.0 | 0.00 | 0.00 | 0.00 | 45 | 1018.9 |
| 20260504003052 | 74 | 200 | 1.0 | 4.0 | 0.00 | 0.00 | 0.00 | 45 | 1018.8 |
| 20260504002549 | 75 | 206 | 2.0 | 3.0 | 0.00 | 0.00 | 0.00 | 44 | 1018.6 |
| 20260504002046 | 75 | 197 | 3.0 | 9.0 | 0.00 | 0.00 | 0.00 | 44 | 1018.7 |
| 20260504001544 | 75 | 163 | 4.0 | 6.0 | 0.00 | 0.00 | 0.00 | 43 | 1018.9 |
| 20260504001040 | 76 | 196 | 2.0 | 3.0 | 0.00 | 0.00 | 0.00 | 42 | 1018.7 |
| 20260504000537 | 76 | 131 | 3.0 | 8.0 | 0.00 | 0.00 | 0.00 | 42 | 1018.9 |
| 20260504000035 | 76 | 184 | 5.0 | 6.0 | 0.00 | 0.00 | 0.00 | 41 | 1019.0 |
| 20260503235533 | 76 | 158 | 4.0 | 8.0 | 0.00 | 0.00 | 0.00 | 40 | 1019.1 |
| 20260503235029 | 77 | 166 | 5.0 | 9.0 | 0.00 | 0.00 | 0.00 | 40 | 1019.4 |
| 20260503234527 | 77 | 197 | 3.0 | 8.0 | 0.00 | 0.00 | 0.00 | 40 | 1019.2 |
| 20260503234025 | 77 | 177 | 6.0 | 10.0 | 0.00 | 0.00 | 0.00 | 39 | 1019.2 |
| 20260503233521 | 77 | 204 | 5.0 | 10.0 | 0.00 | 0.00 | 0.00 | 38 | 1019.4 |
| 20260503233017 | 77 | 194 | 5.0 | 8.0 | 0.00 | 0.00 | 0.00 | 38 | 1019.4 |
| 20260503232514 | 77 | 216 | 6.0 | 8.0 | 0.00 | 0.00 | 0.00 | 38 | 1019.3 |
| 20260503232012 | 77 | 202 | 5.0 | 9.0 | 0.00 | 0.00 | 0.00 | 38 | 1019.2 |
| 20260503231509 | 77 | 202 | 6.0 | 16.0 | 0.00 | 0.00 | 0.00 | 37 | 1019.3 |
| 20260503231006 | 77 | 209 | 7.0 | 11.0 | 0.00 | 0.00 | 0.00 | 37 | 1019.2 |
| 20260503230503 | 77 | 181 | 4.0 | 13.0 | 0.00 | 0.00 | 0.00 | 37 | 1019.4 |
| 20260503230000 | 77 | 163 | 6.0 | 10.0 | 0.00 | 0.00 | 0.00 | 38 | 1019.4 |
| 20260503225456 | 77 | 207 | 5.0 | 10.0 | 0.00 | 0.00 | 0.00 | 37 | 1019.4 |
| 20260503224952 | 78 | 173 | 5.0 | 13.0 | 0.00 | 0.00 | 0.00 | 37 | 1019.4 |
| 20260503224449 | 79 | 207 | 7.0 | 9.0 | 0.00 | 0.00 | 0.00 | 37 | 1019.6 |
| 20260503223947 | 78 | 181 | 1.0 | 6.0 | 0.00 | 0.00 | 0.00 | 39 | 1019.4 |
| 20260503223445 | 78 | 158 | 7.0 | 10.0 | 0.00 | 0.00 | 0.00 | 38 | 1019.3 |
| 20260503222940 | 79 | 231 | 8.0 | 10.0 | 0.00 | 0.00 | 0.00 | 37 | 1019.5 |
| 20260503222439 | 80 | 177 | 6.0 | 9.0 | 0.00 | 0.00 | 0.00 | 37 | 1019.7 |
| 20260503221937 | 80 | 189 | 4.0 | 9.0 | 0.00 | 0.00 | 0.00 | 37 | 1019.6 |
| 20260503221435 | 79 | 182 | 5.0 | 9.0 | 0.00 | 0.00 | 0.00 | 37 | 1019.7 |
| 20260503220931 | 80 | 177 | 11.0 | 15.0 | 0.00 | 0.00 | 0.00 | 36 | 1019.9 |
| 20260503220427 | 79 | 216 | 2.0 | 6.0 | 0.00 | 0.00 | 0.00 | 38 | 1019.8 |
| 20260503215925 | 79 | 185 | 6.0 | 11.0 | 0.00 | 0.00 | 0.00 | 36 | 1019.8 |
| 20260503215422 | 79 | 194 | 4.0 | 9.0 | 0.00 | 0.00 | 0.00 | 37 | 1020.0 |
| 20260503214919 | 79 | 192 | 9.0 | 11.0 | 0.00 | 0.00 | 0.00 | 36 | 1020.0 |
| 20260503214417 | 80 | 174 | 7.0 | 14.0 | 0.00 | 0.00 | 0.00 | 36 | 1020.1 |
| 20260503213914 | 80 | 200 | 6.0 | 10.0 | 0.00 | 0.00 | 0.00 | 36 | 1020.0 |
| 20260503213412 | 80 | 228 | 8.0 | 15.0 | 0.00 | 0.00 | 0.00 | 35 | 1020.3 |
| 20260503212908 | 80 | 166 | 3.0 | 9.0 | 0.00 | 0.00 | 0.00 | 36 | 1020.4 |
| 20260503212406 | 81 | 190 | 3.0 | 7.0 | 0.00 | 0.00 | 0.00 | 36 | 1020.6 |
| 20260503211903 | 81 | 206 | 1.0 | 6.0 | 0.00 | 0.00 | 0.00 | 35 | 1020.7 |
| 20260503211359 | 80 | 178 | 5.0 | 11.0 | 0.00 | 0.00 | 0.00 | 34 | 1020.7 |
| 20260503210855 | 80 | 182 | 10.0 | 14.0 | 0.00 | 0.00 | 0.00 | 33 | 1020.6 |
| 20260503210352 | 80 | 203 | 4.0 | 8.0 | 0.00 | 0.00 | 0.00 | 33 | 1020.9 |
| 20260503205847 | 80 | 223 | 4.0 | 14.0 | 0.00 | 0.00 | 0.00 | 34 | 1020.9 |
| 20260503205344 | 80 | 203 | 7.0 | 13.0 | 0.00 | 0.00 | 0.00 | 33 | 1020.9 |
| 20260503204840 | 80 | 211 | 7.0 | 9.0 | 0.00 | 0.00 | 0.00 | 34 | 1020.9 |
| 20260503204338 | 80 | 180 | 3.0 | 6.0 | 0.00 | 0.00 | 0.00 | 38 | 1021.2 |
| 20260503203835 | 80 | 171 | 7.0 | 10.0 | 0.00 | 0.00 | 0.00 | 35 | 1021.2 |
| 20260503203332 | 80 | 171 | 5.0 | 9.0 | 0.00 | 0.00 | 0.00 | 38 | 1021.4 |
| 20260503202829 | 80 | 60 | 6.0 | 9.0 | 0.00 | 0.00 | 0.00 | 34 | 1021.4 |
| 20260503202327 | 80 | 241 | 2.0 | 7.0 | 0.00 | 0.00 | 0.00 | 35 | 1021.6 |
| 20260503201826 | 80 | 194 | 3.0 | 10.0 | 0.00 | 0.00 | 0.00 | 34 | 1021.7 |
| 20260503201322 | 80 | 144 | 6.0 | 8.0 | 0.00 | 0.00 | 0.00 | 33 | 1021.8 |
| 20260503200820 | 80 | 235 | 3.0 | 8.0 | 0.00 | 0.00 | 0.00 | 33 | 1021.7 |
| 20260503200315 | 79 | 158 | 3.0 | 7.0 | 0.00 | 0.00 | 0.00 | 35 | 1021.6 |
| 20260503195813 | 80 | 165 | 13.0 | 15.0 | 0.00 | 0.00 | 0.00 | 32 | 1021.8 |